Regional Weather Roundup
Issued by NWS

Home | Current Version | Previous Version | Graphics & Text | Print | Product List | Glossary On
Versions: 1 2 3 4 5 6 7 8 9 10 11 12 13 14 15 16 17 18 19 20 21 22 23 24 25 26 27 28 29 30 31 32 33 34 35 36 37 38 39 40 41 42 43 44 45 46 47 48 49 50
000
ASUS45 KSLC 251510
RWRUT

UTAH REGIONAL WEATHER ROUNDUP
NATIONAL WEATHER SERVICE SALT LAKE CITY UT
900 AM MDT SUN SEP 25 2016

UTZ001>011-023>025-251600-

NORTHERN UTAH

CITY           SKY/WX    TMP DP  RH WIND       PRES   REMARKS
BRIGHAM CITY     N/A     45  40  82 NW3       30.48S
HILL AFB       SUNNY     46  37  70 SE13      30.47R
LOGAN          SUNNY     43  41  93 CALM      30.51R
OGDEN          SUNNY     51  39  63 NE7       30.47R
PROVO AIRPORT  SUNNY     47  40  76 SW6       30.49R
SALT LAKE CITY SUNNY     51  42  71 SE7       30.47R
VERNAL         SUNNY     48  37  65 CALM      30.49R
WENDOVER       SUNNY     50  39  66 NE7       30.49R
HEBER CITY     SUNNY     37  34  87 CALM      30.52R
WEST JORDAN    SUNNY     50  43  78 SE5       30.48R

$$

UTZ012>022-026-027-251600-

SOUTHERN/CENTRAL UTAH

CITY           SKY/WX    TMP DP  RH WIND       PRES   REMARKS
BLANDING       SUNNY     55  31  40 NE22G29   30.45R
BRYCE CANYON   SUNNY     41  32  70 NE8       30.50R
CEDAR CITY     SUNNY     46  34  62 N6        30.43R
DELTA          SUNNY     46  39  76 NE5       30.47R
MILFORD        SUNNY     51  41  68 N14       30.44R
MOAB/CYNLANDS  SUNNY     57  36  45 NE14      30.41R
PRICE          SUNNY     47  37  68 CALM      30.48R
ST GEORGE      SUNNY     61  34  36 S8        30.34R

$$

REGIONAL REPORTS     COLORADO/ARIZONA

CITY           SKY/WX    TMP DP  RH WIND       PRES   REMARKS
CRAIG, CO      FOG       36  35  96 CALM      30.53R VSB<1/4
GRAND JUNCTION SUNNY     48  40  73 CALM      30.45R
RIFLE          SUNNY     46  41  82 N5        30.49S
MONTROSE       SUNNY     46  38  73 SE6       30.50R
CORTEZ         SUNNY     46  36  68 CALM      30.39R
PAGE, AZ       SUNNY     61  34  36 N9        30.36R
GRAND CANYON   SUNNY     53  33  46 NE17      30.40R
KINGMAN        SUNNY     62  32  32 NE7       30.25R
FLAGSTAFF      SUNNY     49  34  56 NE21G28   30.36R

$$

REGIONAL REPORTS    NEVADA/IDAHO/WYOMING

CITY           SKY/WX    TMP DP  RH WIND       PRES   REMARKS
LAS VEGAS, NV  SUNNY     72  32  23 N6        30.28R
ELY            SUNNY     39  31  72 W5        30.51R
ELKO           SUNNY     41  33  73 CALM      30.50R
POCATELLO, ID  SUNNY     42  36  79 NW3       30.51R
BURLEY         SUNNY     46  38  73 SW5       30.48R
EVANSTON, WY   CLOUDY    39  33  79 CALM      30.53R
ROCK SPRINGS   SUNNY     41  35  79 W6        30.52R

$$



USA.gov is the U.S. government's official web portal to all federal, state and local government web resources and services.